Voltar ao catálogo

COSMOS 970 DEB

AtivoLEO
NORAD 10883·DEBRIS·🇷🇺 Russia

Lançado Dec 21, 1977 de Baikonur Cosmodrome

Loading…

Próximas Passagens (próximas 24 horas)

TLE

AtualizadoSource: Space-Track

Época: Sep 14, 2026, 07:49 UTC

1 10883U 77121AE  26257.32596583  .00000139  00000-0  21591-3 0  9995
2 10883  65.8440   7.6049 0110998  49.6627 343.5950 13.76178790434567

Acompanhe COSMOS 970 DEB em tempo real com AllMySat

Download on the App Store